This is the latest recevied weather packets stored in our database for station/object N4OOJ-13. If no packets are shown the sender has not sent any weather packets the latest 10 day(s).
| Time | Temp. | Humidity | Pressure | Rain* | Wind** | Luminosity | Snow |
|---|---|---|---|---|---|---|---|
| 1777711825 | 16.67° C | 99% | 1012.5 hPa | 1.02 mm | - | - | - |
| 1777711225 | 16.67° C | 99% | 1012.9 hPa | 1.52 mm | - | - | - |
| 1777710625 | 16.67° C | 99% | 1012.6 hPa | 1.27 mm | - | - | - |
| 1777710025 | 16.67° C | 99% | 1012.9 hPa | 1.52 mm | - | - | - |
| 1777709425 | 16.67° C | 99% | 1012.8 hPa | 1.52 mm | - | - | - |
| 1777708820 | 16.67° C | 99% | 1012.8 hPa | 1.52 mm | - | - | - |
| 1777708215 | 16.67° C | 99% | 1012.7 hPa | 1.52 mm | - | - | - |
| 1777707623 | 17.22° C | 99% | 1012.7 hPa | 1.02 mm | - | - | - |
| 1777707018 | 17.22° C | 99% | 1013.2 hPa | 1.27 mm | - | - | - |
| 1777706418 | 17.22° C | 99% | 1013.3 hPa | 0.76 mm | - | - | - |
| 1777705831 | 17.22° C | 99% | 1013 hPa | 0.76 mm | - | - | - |
| 1777705225 | 17.22° C | 99% | 1012.9 hPa | 0.51 mm | - | - | - |
| 1777704620 | 17.22° C | 99% | 1013.1 hPa | 0.76 mm | - | - | - |
| 1777704033 | 17.22° C | 99% | 1013.2 hPa | 1.02 mm | - | - | - |
| 1777703428 | 17.22° C | 99% | 1013.3 hPa | 1.02 mm | - | - | - |
| 1777702822 | 17.22° C | 99% | 1013.3 hPa | 1.27 mm | - | - | - |
| 1777702222 | 17.22° C | 99% | 1013.4 hPa | 1.02 mm | - | - | - |
| 1777701617 | 17.22° C | 99% | 1013.4 hPa | 1.02 mm | - | - | - |
| 1777701023 | 17.22° C | 99% | 1013.3 hPa | 0.76 mm | - | - | - |
| 1777700418 | 17.22° C | 99% | 1013.4 hPa | 0.51 mm | - | - | - |
| 1777699825 | 17.22° C | 99% | 1013.3 hPa | 0.25 mm | - | - | - |
| 1777699225 | 17.22° C | 99% | 1013.1 hPa | 0.25 mm | - | - | - |
| 1777698619 | 17.22° C | 99% | 1013 hPa | 0.25 mm | - | - | - |
| 1777698020 | 17.22° C | 99% | 1013.1 hPa | 0.25 mm | - | - | - |
| 1777697419 | 17.22° C | 99% | 1013.3 hPa | 0.25 mm | - | - | - |
* Rain latest hour (hover to see other rain measurements)
** Current wind speed in m/s (hover to see current wind gust speed)